Sitka, AK

11:26 PM AKDT on September 26, 2016 (GMT -0800)
Sitka Rocky Gutierrez

Weather History for PASI - May, 2013

Change the Weather History Date:

Sunday, May 26, 2013

  Actual Average Record
Temperature  
Mean Temperature 52 °F -  
Max Temperature 57 °F 54 °F 115 °F (2016)
Min Temperature 46 °F 43 °F 34 °F (1966)
Degree Days  
Heating Degree Days 14    
Growing Degree Days 2 (Base 50)    
Moisture  
Dew Point 47 °F    
Average Humidity 90    
Maximum Humidity 100    
Minimum Humidity 64    
Precipitation  
Precipitation 0.00 in - - ()
Sea Level Pressure  
Sea Level Pressure 29.95 in    
Wind  
Wind Speed 3 mph (SW)    
Max Wind Speed 8 mph    
Max Gust Speed -    
Visibility 5 miles    
Events Fog    
Averages and records for this station are not official NWS values.
T = Trace of Precipitation, MM = Missing Value Source: NWS Daily Summary

Daily Weather History Graph

Daily Weather History Graph

Search for Another Location

Airport or City:

Trip Planner

Search our weather history database for the weather conditions in past years. The results will help you decide how hot, cold, wet, or windy it might be!

Date:

Astronomy

May. 26, 2013 Rise Set
Actual Time 4:23 AM AKDT 9:35 PM AKDT
Civil Twilight 3:24 AM AKDT 10:34 PM AKDT
Nautical Twilight 1:30 AM AKDT 12:26 AM AKDT
Astronomical Twilight Sun does not set Sun does not set
Moon 11:20 PM AKDT (5/26) 6:05 AM AKDT (5/26)
Length of Visible Light 19h 10m
Length of Day
17h 11m
Waning Gibbous, 96% of the Moon is Illuminated
May 26
Waning Gibbous
May 31
Last Quarter
Jun 8
New
Jun 16
First Quarter
Jun 23
Full

Hourly Weather History & Observations

Time (AKDT) Temp. Windchill Dew Point Humidity Pressure Visibility Wind Dir Wind Speed Gust Speed Precip Events Conditions
12:30 AM 48.2 °F - 46.4 °F 93% 30.00 in 10.0 mi NW 3.5 mph - N/A   Overcast
12:53 AM 48.9 °F - 46.9 °F 93% 30.00 in 10.0 mi Calm Calm - N/A   Partly Cloudy
1:53 AM 48.9 °F - 46.9 °F 93% 30.01 in 10.0 mi South 3.5 mph - N/A   Overcast
2:14 AM 48.2 °F - 46.4 °F 93% 30.00 in 10.0 mi South 4.6 mph - N/A   Overcast
2:53 AM 48.0 °F - 48.0 °F 100% 30.00 in 8.0 mi South 3.5 mph - N/A   Overcast
3:14 AM 46.4 °F - 46.4 °F 100% 29.99 in 1.8 mi Calm Calm - N/A   Overcast
3:30 AM 46.4 °F - 46.4 °F 100% 29.99 in 0.8 mi Calm Calm - N/A   Mist
3:53 AM 46.9 °F - 46.9 °F 100% 29.99 in 0.8 mi Calm Calm - N/A   Mist
4:04 AM 46.4 °F - 46.4 °F 100% 29.99 in 1.0 mi Calm Calm - N/A   Mist
4:12 AM 46.4 °F 45.2 °F 46.4 °F 100% 29.99 in 0.5 mi WSW 3.5 mph - N/A Fog Fog
4:53 AM 46.0 °F - 46.0 °F 100% 29.98 in 0.2 mi Calm Calm - N/A Fog Fog
5:53 AM 46.0 °F 44.8 °F 46.0 °F 100% 29.98 in 0.2 mi NW 3.5 mph - N/A Fog Fog
6:53 AM 46.0 °F - 46.0 °F 100% 29.98 in 0.1 mi Calm Calm - N/A Fog Fog
7:53 AM 46.0 °F - 46.0 °F 100% 29.97 in 0.2 mi Calm Calm - N/A Fog Fog
8:53 AM 46.0 °F - 46.0 °F 100% 29.96 in 0.2 mi Calm Calm - N/A Fog Fog
9:53 AM 46.9 °F - 46.0 °F 97% 29.95 in 0.5 mi SW 3.5 mph - N/A Fog Fog
10:42 AM 46.4 °F 45.2 °F 46.4 °F 100% 29.94 in 1.2 mi SW 3.5 mph - N/A   Mist
10:47 AM 48.2 °F - 46.4 °F 93% 29.94 in 0.8 mi SSW 4.6 mph - N/A   Mostly Cloudy
10:53 AM 46.9 °F - 46.9 °F 100% 29.94 in 0.8 mi SSW 3.5 mph - N/A   Mist
11:11 AM 48.2 °F - 46.4 °F 93% 29.94 in 1.0 mi Calm Calm - N/A   Mist
11:19 AM 48.2 °F - 46.4 °F 93% 29.93 in 4.0 mi SW 3.5 mph - N/A   Mostly Cloudy
11:22 AM 48.2 °F - 46.4 °F 93% 29.93 in 1.5 mi SW 4.6 mph - N/A   Scattered Clouds
11:37 AM 48.2 °F - 46.4 °F 93% 29.93 in 1.2 mi SW 5.8 mph - N/A   Mostly Cloudy
11:53 AM 50.0 °F - 46.9 °F 89% 29.93 in 1.0 mi SW 5.8 mph - N/A   Mist
12:10 PM 50.0 °F - 46.4 °F 87% 29.93 in 2.0 mi SW 4.6 mph - N/A   Scattered Clouds
12:16 PM 50.0 °F - 48.2 °F 94% 29.93 in 2.5 mi SSW 4.6 mph - N/A   Overcast
12:23 PM 51.8 °F - 48.2 °F 88% 29.93 in 2.5 mi SSW 4.6 mph - N/A   Scattered Clouds
12:28 PM 51.8 °F - 48.2 °F 88% 29.93 in 10.0 mi SW 4.6 mph - N/A   Partly Cloudy
12:53 PM 54.0 °F - 48.9 °F 83% 29.93 in 10.0 mi SW 6.9 mph - N/A   Partly Cloudy
1:53 PM 55.9 °F - 48.9 °F 77% 29.93 in 10.0 mi SW 5.8 mph - N/A   Clear
2:53 PM 55.0 °F - 46.9 °F 74% 29.93 in 10.0 mi Calm Calm - N/A   Scattered Clouds
3:53 PM 57.0 °F - 48.0 °F 72% 29.93 in 10.0 mi WNW 3.5 mph - N/A   Scattered Clouds
4:53 PM 57.9 °F - 46.0 °F 65% 29.93 in 10.0 mi West 4.6 mph - N/A   Scattered Clouds
5:53 PM 55.9 °F - 46.9 °F 72% 29.93 in 10.0 mi WNW 3.5 mph - N/A   Scattered Clouds
6:53 PM 57.0 °F - 45.0 °F 64% 29.92 in 10.0 mi West 3.5 mph - N/A   Mostly Cloudy
7:53 PM 54.0 °F - 48.0 °F 80% 29.92 in 10.0 mi SW 5.8 mph - N/A   Mostly Cloudy
8:53 PM 52.0 °F - 48.0 °F 86% 29.92 in 10.0 mi SW 8.1 mph - N/A   Scattered Clouds
9:53 PM 50.0 °F - 46.0 °F 86% 29.92 in 10.0 mi Calm Calm - N/A   Clear
10:53 PM 50.0 °F - 46.9 °F 89% 29.92 in 10.0 mi Calm Calm - N/A   Clear
11:53 PM 50.0 °F - 46.9 °F 89% 29.92 in 10.0 mi Calm Calm - N/A   Clear